Weather History for Molokai, HI

Change the Weather History Date:

Tuesday, February 11, 2014

  Actual Average Record
Temperature  
Mean Temperature 72 °F -  
Max Temperature 81 °F 77 °F 82 °F (1980)
Min Temperature 63 °F 62 °F 53 °F (1987)
Cooling Degree Days 7    
Growing Degree Days 22 (Base 50)    
Moisture  
Dew Point 68 °F    
Average Humidity 89    
Maximum Humidity 100    
Minimum Humidity 62    
Precipitation  
Precipitation 0.01 in - - ()
Sea Level Pressure  
Sea Level Pressure 30.02 in    
Wind  
Wind Speed 3 mph (NNE)    
Max Wind Speed 8 mph    
Max Gust Speed -    
Visibility 10 miles    
Events      
Averages and records for this station are not official NWS values.
T = Trace of Precipitation, MM = Missing Value Source: NWS Daily Summary

Daily Weather History Graph

Daily Weather History Graph

Search for Another Location

Airport:

Trip Planner

Search our weather history database for the weather conditions in past years. The results will help you decide how hot, cold, wet, or windy it might be!

Date:

Astronomy

Feb. 11, 2014 Rise Set
Actual Time 7:00 AM HST 6:24 PM HST
Civil Twilight 6:38 AM HST 6:47 PM HST
Nautical Twilight 6:11 AM HST 7:13 PM HST
Astronomical Twilight 5:45 AM HST 7:39 PM HST
Moon 4:03 PM HST (2/11) 4:36 AM HST (2/11)
Length of Visible Light 12h 09m
Length of Day
11h 23m
Waxing Gibbous, 92% of the Moon is Illuminated
Feb 11
Waxing Gibbous
Feb 14
Full
Feb 22
Last Quarter
Feb 28
New
Mar 8
First Quarter

Hourly Weather History & Observations

Time (HST) Temp. Heat Index Dew Point Humidity Pressure Visibility Wind Dir Wind Speed Gust Speed Precip Events Conditions
12:54 AM 64.9 °F - 64.9 °F 100% 30.05 in 10.0 mi NNW 3.5 mph - N/A   Clear
1:54 AM 64.9 °F - 64.9 °F 100% 30.05 in 9.0 mi Calm Calm - N/A   Clear
2:54 AM 66.0 °F - 64.9 °F 96% 30.04 in 10.0 mi ENE 3.5 mph - N/A   Clear
3:54 AM 63.0 °F - 63.0 °F 100% 30.04 in 10.0 mi Calm Calm - N/A   Clear
4:54 AM 63.0 °F - 63.0 °F 100% 30.02 in 10.0 mi Calm Calm - N/A   Clear
5:19 AM 64.4 °F - 64.4 °F 100% 30.01 in 10.0 mi Calm Calm - N/A   Partly Cloudy
5:54 AM 64.0 °F - 64.0 °F 100% 30.04 in 10.0 mi Calm Calm - N/A   Clear
6:54 AM 64.9 °F - 64.0 °F 97% 30.06 in 10.0 mi ENE 4.6 mph - N/A   Clear
7:54 AM 66.9 °F - 66.0 °F 97% 30.06 in 10.0 mi Calm Calm - N/A   Clear
8:54 AM 73.9 °F - 68.0 °F 82% 30.07 in 10.0 mi Calm Calm - N/A   Clear
9:54 AM 80.1 °F 82.1 °F 66.0 °F 62% 30.07 in 10.0 mi NE 4.6 mph - N/A   Clear
10:54 AM 80.1 °F 82.7 °F 68.0 °F 67% 30.06 in 10.0 mi SSE 5.8 mph - N/A   Scattered Clouds
11:54 AM 81.0 °F 84.1 °F 69.1 °F 67% 30.04 in 10.0 mi Calm Calm - 0.01 in   Partly Cloudy
12:54 PM 81.0 °F 84.4 °F 70.0 °F 69% 30.01 in 10.0 mi North 8.1 mph - N/A   Scattered Clouds
1:54 PM 80.1 °F 83.2 °F 70.0 °F 71% 29.98 in 10.0 mi North 5.8 mph - N/A   Scattered Clouds
2:54 PM 75.9 °F - 73.0 °F 91% 29.96 in 10.0 mi NNE 4.6 mph - N/A   Scattered Clouds
3:54 PM 78.1 °F - 73.0 °F 84% 29.96 in 10.0 mi Calm Calm - N/A   Scattered Clouds
4:54 PM 75.9 °F - 71.1 °F 85% 29.97 in 10.0 mi NNE 5.8 mph - N/A   Scattered Clouds
5:54 PM 75.0 °F - 71.1 °F 87% 29.99 in 10.0 mi NNE 3.5 mph - N/A   Clear
6:54 PM 72.0 °F - 70.0 °F 93% 29.99 in 10.0 mi North 6.9 mph - N/A   Clear
7:54 PM 71.1 °F - 70.0 °F 96% 30.02 in 10.0 mi North 6.9 mph - N/A   Clear
8:54 PM 71.1 °F - 69.1 °F 93% 30.02 in 10.0 mi NNE 3.5 mph - N/A   Clear
9:54 PM 71.1 °F - 68.0 °F 90% 30.02 in 10.0 mi NNE 4.6 mph - N/A   Clear
10:54 PM 71.1 °F - 71.1 °F 100% 30.03 in 10.0 mi NNE 4.6 mph - N/A   Clear
11:54 PM 72.0 °F - 70.0 °F 93% 30.03 in 10.0 mi NNE 6.9 mph - N/A   Clear